Temperature
15 16 16 16 16 16 15 14 14 15 15 16 16 15 16 16 16 16 16 17 17 17 17 16 16 16 16 16 16 16 16 16 16 15 15 15 15 15 15 15 15 14 14 14
15 16 16 16 16 16 16 15 15 15 15 15 16 16 16 16 16 16 16 16 16 16 16 16 16 16 16 16 16 16 16 16 16 15 15 15 15 15 15 15 14 14 14 14
14 14 15 15 16 16 16 15 15 15 15 15 14 15 15 16 16 16 16 16 16 16 16 16 16 16 16 16 16 15 15 15 15 15 15 15 15 15 14 14 14 14 14 14
12 14 15 15 16 16 16 15 15 15 15 14 15 16 16 17 16 16 16 16 16 16 16 16 16 16 16 16 15 15 15 15 15 15 15 15 15 14 14 14 14 14 14 14
11 13 14 15 16 15 15 15 15 14 14 14 15 15 16 17 16 16 16 16 16 16 16 16 16 16 16 16 15 15 15 15 15 15 15 15 15 14 14 14 14 14 14 14
11 13 13 15 15 16 15 15 15 14 14 13 14 13 14 16 16 16 16 16 16 16 16 16 16 15 15 15 15 15 15 15 15 15 15 15 14 14 14 14 14 14 13 13
11 12 13 14 15 15 15 14 15 15 14 14 14 14 16 16 16 16 16 16 16 16 16 16 15 15 15 15 15 15 15 15 15 15 14 14 14 14 14 14 13 13 13 13
10 12 13 14 14 14 14 15 15 15 15 15 15 15 15 15 15 15 16 15 16 16 16 15 15 15 15 15 15 15 14 14 14 14 14 14 14 14 13 13 13 13 13 13
11 12 14 14 14 15 16 16 16 16 16 15 15 15 15 15 15 15 15 15 15 15 15 15 15 15 15 15 15 14 14 14 14 14 14 14 14 13 13 13 13 13 13 13
10 11 13 14 15 15 15 16 16 16 16 15 15 15 15 15 15 15 15 15 15 15 15 15 15 15 15 14 14 14 14 14 14 14 14 13 13 13 13 13 13 12 12 12
10 11 12 14 14 15 15 15 15 15 15 15 15 15 15 15 15 14 15 15 15 15 15 15 15 15 14 14 14 14 14 14 13 13 13 13 13 13 13 13 12 12 12 12
11 12 11 13 14 14 14 15 15 15 15 15 15 15 15 14 14 14 14 15 14 14 14 14 14 14 14 14 14 13 13 13 13 13 13 13 13 12 12 12 12 12 12 12
13 13 13 13 14 14 14 14 14 14 15 14 15 15 14 14 14 14 14 14 14 14 14 14 14 14 14 14 14 13 13 13 13 13 13 12 12 12 12 12 12 11 11 11
12 12 12 13 13 13 14 14 14 14 14 14 14 14 14 14 14 14 14 14 14 14 14 14 14 14 14 14 13 13 13 13 13 13 12 12 12 12 12 12 11 11 11 11
12 12 12 13 13 13 13 13 13 14 14 14 14 14 14 14 14 14 14 14 14 14 14 14 14 13 13 13 13 13 13 13 13 12 12 12 12 12 12 11 11 11 11 11
12 12 12 12 12 13 13 13 13 13 13 13 13 14 14 13 13 13 13 13 13 13 14 13 13 13 13 13 13 13 13 12 12 12 12 12 11 11 11 11 11 11 11 10
11 11 11 12 12 12 13 13 13 13 13 13 13 13 13 13 13 13 13 13 13 13 13 13 13 13 13 13 13 12 12 12 12 12 12 12 11 11 11 11 11 11 11 10
11 11 11 12 12 12 12 12 13 13 13 13 13 13 13 13 13 13 13 13 13 13 13 13 13 13 13 12 12 12 12 12 12 11 11 11 11 11 11 11 10 10 10 10
11 11 11 11 12 12 12 12 12 12 12 12 12 12 13 13 13 13 12 12 12 12 12 12 12 12 12 12 12 12 12 12 12 11 11 11 11 11 11 10 10 10 10 10
10 11 11 11 11 11 11 11 12 12 12 12 12 12 12 12 12 12 12 12 12 12 12 12 12 12 12 12 12 12 12 12 11 11 11 11 11 11 10 10 10 10 10 10
10 10 10 11 11 11 11 11 11 11 11 11 11 11 11 12 11 11 11 11 11 11 11 11 11 12 12 12 12 12 11 11 11 11 11 10 10 10 10 10 10 10 10 9
9 10 10 10 10 10 10 11 11 11 11 11 11 11 11 11 11 11 11 11 11 11 11 11 11 11 11 11 11 11 11 11 11 11 10 10 10 10 10 10 10 9 9 9
9 9 9 10 10 10 10 10 10 10 10 10 10 10 10 11 11 11 11 11 11 11 11 11 11 11 11 11 11 11 11 11 11 10 10 10 10 10 10 9 9 9 9 9
9 9 9 9 9 9 9 9 9 9 9 10 10 10 10 10 10 10 10 10 10 10 10 10 11 10 10 11 11 11 11 11 10 10 10 10 10 10 9 9 9 9 9 8
8 8 8 9 9 9 9 9 9 9 9 9 9 9 9 10 10 10 10 10 10 10 10 10 10 10 10 10 10 10 10 10 10 10 10 9 9 9 9 9 9 8 8 8
8 8 8 8 8 8 8 8 8 8 8 8 8 9 9 9 9 9 9 9 9 9 9 9 9 9 9 10 10 10 10 10 9 9 9 9 9 9 9 8 8 8 8 8
7 7 7 7 8 8 8 8 8 8 8 8 8 8 8 8 8 9 9 9 9 9 9 9 9 9 9 9 9 9 9 9 9 9 9 9 8 8 8 8 8 8 7 7
Wind_Speed
5 5 4 5 6 6 7 8 8 9 9 12 10 8 6 4 2 2 1 1 1 3 4 4 4 5 6 6 6 6 6 7 7 6 5 5 5 4 4 5 5 4 4 4
3 4 4 7 8 8 8 7 8 8 11 10 6 3 3 3 3 3 3 3 3 3 4 4 5 5 6 6 6 6 6 6 6 5 5 5 5 5 5 4 4 4 4 4
4 4 3 7 8 8 6 6 7 9 9 5 4 5 5 5 5 5 5 3 3 4 4 5 5 6 7 6 6 6 6 6 6 6 6 5 5 5 5 5 4 4 4 4
2 0 6 8 4 5 5 4 5 5 5 4 5 5 4 3 4 4 4 3 3 4 4 4 4 4 5 5 6 6 6 6 6 6 6 5 5 5 4 4 4 4 4 3
3 4 7 7 3 3 4 5 3 4 3 2 2 3 3 2 3 4 4 4 5 5 5 4 4 4 5 5 6 6 6 6 6 7 7 6 6 5 4 4 3 3 3 4
4 4 6 7 3 2 3 5 3 2 2 1 2 1 6 5 3 3 2 2 3 3 3 4 4 5 6 6 6 7 7 7 7 7 8 7 6 5 3 3 3 4 3 3
5 6 7 6 3 2 3 6 3 2 3 3 5 6 6 4 3 2 2 1 2 3 4 4 5 6 6 5 6 7 5 6 6 6 7 7 6 5 5 4 4 3 3 2
5 5 8 3 3 5 5 3 2 3 4 5 5 4 3 2 2 2 0 1 2 2 3 3 5 7 6 6 6 5 5 6 6 6 6 6 6 5 5 6 5 4 3 2
7 7 4 2 4 4 2 3 4 3 4 3 3 4 3 3 2 2 1 1 1 2 2 3 5 7 7 5 5 6 6 6 5 6 5 6 7 6 5 5 5 4 4 3
4 6 6 6 4 4 4 5 5 4 3 3 4 4 3 2 2 2 1 1 1 2 2 3 4 5 5 5 5 7 7 6 6 6 5 5 5 6 6 6 5 5 5 4
5 7 6 6 5 5 6 5 4 3 3 4 4 4 4 3 3 3 2 2 2 3 3 4 4 4 4 5 6 6 7 6 6 6 6 6 4 4 6 6 7 7 6 6
6 6 4 7 7 6 6 7 5 4 3 3 4 5 4 4 4 3 3 2 2 2 3 3 4 4 4 5 7 7 6 6 6 5 5 5 5 2 1 3 5 6 6 6
7 6 6 9 8 6 6 7 6 5 5 4 4 4 4 4 4 3 3 3 4 4 4 4 4 4 4 5 6 7 7 7 6 6 6 6 6 6 4 2 3 4 5 6
6 4 6 7 8 7 7 7 5 5 4 4 4 3 3 3 3 4 5 5 5 4 4 4 4 4 4 6 6 6 6 7 7 6 6 6 6 6 5 5 4 2 3 6
7 6 8 9 8 7 6 4 3 4 3 3 3 3 3 4 5 6 5 4 3 4 4 5 5 4 4 6 6 6 6 5 6 6 5 5 5 5 5 5 5 3 2 2
7 6 5 6 7 6 4 4 4 5 4 4 4 4 5 5 4 3 3 4 4 5 6 6 6 5 5 6 6 5 5 7 7 6 6 5 5 5 5 5 5 4 4 4
4 6 6 6 7 6 5 5 6 6 5 5 5 4 3 3 2 3 3 4 5 5 5 6 6 5 5 6 7 5 5 6 8 6 6 6 6 6 6 6 6 6 5 5
7 8 7 7 7 7 6 6 6 5 5 5 4 3 4 5 5 5 4 3 2 2 3 4 5 5 5 6 6 5 5 6 6 6 6 6 6 6 6 6 6 6 4 5
6 6 6 6 6 6 5 5 5 4 4 3 3 4 5 5 5 4 3 3 3 4 4 4 5 5 5 6 6 5 6 6 6 5 5 6 6 5 6 6 6 6 6 5
5 5 5 5 4 3 4 4 4 3 3 2 3 3 3 4 3 3 4 4 5 5 4 4 4 5 5 6 7 6 6 6 6 6 5 6 6 6 6 6 6 6 6 6
5 5 4 4 4 4 3 3 3 3 3 3 4 5 4 4 3 4 4 4 4 3 3 5 4 4 5 6 7 6 6 6 6 6 6 6 6 6 6 6 6 6 6 6
4 4 4 4 3 4 3 2 2 2 2 2 3 3 3 3 3 3 4 5 4 4 4 4 4 5 6 6 5 6 6 7 6 6 6 6 6 6 6 7 7 6 6 6
4 4 4 4 3 3 3 2 2 2 2 3 3 4 4 4 4 4 4 4 3 5 4 4 5 7 7 6 5 6 7 7 7 6 6 6 7 7 6 7 6 6 6 6
4 4 4 3 2 2 3 3 3 2 2 2 3 3 3 3 3 3 3 4 5 5 4 5 6 7 7 4 5 6 6 6 6 6 6 6 6 6 6 6 5 5 6 6
4 3 3 2 2 2 3 3 2 2 1 1 2 2 2 2 3 3 2 3 5 4 3 4 6 6 5 4 5 6 6 6 6 6 6 6 6 6 6 5 5 5 5 6
3 3 3 3 3 2 2 1 2 2 1 1 2 2 2 1 1 1 1 2 3 3 2 2 3 4 3 4 4 5 5 5 5 5 6 6 6 6 6 6 6 6 5 5
3 2 2 2 3 2 1 1 1 2 2 2 2 2 1 1 0 0 0 1 1 2 2 2 2 2 2 2 3 3 3 3 4 4 4 5 5 5 5 6 5 5 5 5
Wind_Direction
238 247 236 245 247 218 211 209 213 240 244 259 265 266 269 264 265 275 255 237 231 198 194 192 185 184 183 181 173 174 174 180 191 187 175 165 161 161 160 158 158 158 152 150
277 267 255 263 256 241 234 228 231 247 260 263 276 268 261 249 242 245 245 239 242 209 187 189 191 191 184 178 175 170 175 184 179 169 165 164 164 155 150 148 147 147 152 155
259 289 322 270 241 224 224 217 206 228 247 268 270 257 242 233 234 237 243 245 230 214 204 199 196 187 187 183 167 167 176 174 165 163 163 166 161 152 155 159 152 149 159 160
205 117 239 246 243 219 222 239 226 234 260 251 250 260 256 227 216 238 244 246 242 218 212 206 192 182 174 161 164 170 173 169 164 160 160 155 152 159 163 158 159 162 165 168
162 215 269 288 262 192 203 259 247 239 280 327 343 354 310 271 243 244 244 240 229 215 209 192 180 175 158 159 164 171 178 175 171 165 162 159 162 166 161 153 158 160 164 167
166 199 238 251 264 242 142 261 266 222 242 251 87 329 275 286 281 270 263 243 209 198 186 174 174 157 155 166 169 183 187 181 174 169 167 170 172 162 151 150 154 152 153 168
195 224 257 261 269 115 170 249 271 221 223 200 205 231 266 283 283 268 262 220 169 170 181 188 170 156 157 166 189 197 182 169 167 170 170 167 161 154 149 144 136 137 140 146
177 209 252 258 138 177 222 266 259 237 228 220 242 266 275 275 277 289 264 131 153 172 194 178 163 160 164 183 195 175 162 163 166 164 163 158 153 153 151 148 145 147 142 139
199 220 251 232 216 245 229 251 255 244 248 225 252 264 266 265 270 264 204 196 174 178 187 176 172 173 178 191 171 159 158 164 167 162 159 157 158 155 151 155 160 167 167 169
258 270 281 282 283 280 265 260 260 244 230 214 241 251 249 255 270 263 241 216 179 159 173 198 190 183 185 171 160 159 165 168 165 164 161 159 162 164 165 170 171 175 179 183
260 279 301 299 293 292 294 289 282 268 235 221 221 234 231 238 244 236 228 225 185 184 199 204 193 189 183 164 159 165 169 167 166 171 168 167 170 177 180 187 185 183 190 186
239 245 247 275 286 293 291 286 277 270 268 253 225 223 228 227 226 218 212 205 192 199 203 200 186 193 185 171 168 170 173 173 170 170 170 167 161 141 108 167 181 183 178 175
246 260 260 274 284 284 277 275 270 254 241 246 242 221 215 226 222 204 207 204 203 210 208 194 186 194 190 178 173 177 180 180 173 172 174 172 170 167 162 116 119 156 170 172
264 268 278 277 278 282 279 275 269 264 254 232 227 226 217 221 218 210 216 218 210 206 200 187 185 199 191 176 175 181 181 179 173 175 178 178 180 179 175 170 170 182 187 180
265 259 259 271 280 283 283 280 276 270 258 244 226 218 209 211 218 224 224 214 199 201 200 188 191 205 185 172 175 182 182 182 177 172 172 176 174 172 173 176 177 171 154 168
273 281 275 273 276 280 279 264 253 249 245 240 233 228 224 220 224 226 213 192 190 209 208 199 205 204 183 175 177 183 187 181 172 169 167 167 168 171 177 181 180 179 184 182
257 273 276 277 275 274 266 255 243 239 235 232 231 227 216 200 204 221 227 214 209 214 209 204 208 194 182 180 178 184 180 180 174 170 174 178 179 183 184 185 186 191 198 187
241 249 251 251 257 262 263 260 249 237 233 234 225 203 199 199 209 222 227 209 199 221 222 211 200 185 184 183 179 179 177 177 178 180 182 183 184 185 184 187 191 191 191 183
263 267 271 268 261 253 253 258 255 246 241 220 203 210 214 215 216 214 200 187 194 222 240 217 198 183 185 188 179 176 176 176 179 182 182 183 186 187 187 189 192 193 188 184
281 286 288 285 282 269 264 269 268 262 250 217 206 207 218 223 212 204 197 208 218 223 219 198 189 190 190 188 181 177 177 179 183 185 185 187 189 191 192 194 193 193 192 191
298 299 298 294 292 287 273 262 253 254 252 218 208 213 217 220 208 200 198 230 249 221 203 199 196 195 190 186 182 180 181 183 186 188 190 191 192 192 193 193 194 194 194 194
302 299 297 296 295 295 291 279 261 258 261 247 232 221 213 218 216 217 218 224 229 209 202 204 202 200 192 183 182 183 185 186 189 190 192 191 191 195 197 196 197 197 194 192
294 293 296 292 282 282 302 306 282 256 246 242 236 228 222 223 215 209 237 238 212 212 210 211 209 199 189 184 186 187 188 190 191 193 194 193 193 194 196 196 196 193 191 190
302 303 299 300 316 331 317 302 292 278 264 259 255 241 225 225 249 242 234 217 205 210 217 215 205 198 190 190 187 189 192 195 196 196 194 194 193 191 191 189 189 189 188 186
304 305 315 329 313 293 286 291 303 308 307 302 297 288 265 235 234 244 229 207 201 204 216 215 208 205 201 198 194 194 197 198 196 192 191 191 191 190 188 186 186 186 187 189
302 297 286 274 274 280 284 285 289 292 294 301 305 308 308 303 261 232 207 194 186 189 194 203 202 204 202 198 198 196 195 196 195 194 191 190 187 186 187 187 186 189 190 191
318 321 323 327 327 316 300 282 272 274 263 253 281 294 295 306 326 304 182 171 173 175 181 193 191 187 185 183 183 182 182 182 183 183 182 182 182 185 186 184 187 187 186 185
Height
1519 1517 1517 1516 1516 1517 1520 1521 1525 1519 1516 1506 1502 1501 1499 1499 1499 1499 1499 1499 1500 1501 1502 1504 1506 1508 1511 1514 1517 1519 1522 1525 1527 1530 1532 1534 1535 1537 1539 1540 1542 1544 1545 1546
1519 1515 1515 1515 1511 1511 1512 1512 1513 1512 1509 1499 1499 1498 1497 1497 1497 1497 1497 1498 1499 1500 1501 1502 1504 1506 1509 1512 1514 1517 1520 1522 1525 1527 1529 1531 1533 1535 1537 1538 1540 1542 1543 1544
1524 1517 1515 1518 1508 1506 1506 1504 1505 1508 1503 1497 1497 1496 1495 1495 1496 1496 1496 1497 1497 1498 1499 1500 1502 1504 1507 1509 1512 1515 1517 1520 1523 1525 1527 1529 1531 1533 1535 1536 1538 1540 1541 1542
1525 1521 1525 1509 1498 1499 1500 1500 1499 1498 1496 1495 1494 1494 1493 1494 1494 1494 1494 1494 1495 1496 1497 1499 1500 1502 1505 1508 1510 1513 1515 1518 1520 1523 1525 1527 1529 1531 1533 1535 1536 1538 1539 1540
1527 1525 1517 1505 1497 1497 1499 1499 1496 1495 1494 1493 1493 1492 1491 1492 1492 1492 1492 1493 1493 1494 1496 1497 1498 1500 1503 1505 1508 1510 1513 1515 1518 1520 1523 1525 1527 1529 1531 1532 1534 1535 1537 1538
1524 1522 1519 1503 1494 1492 1496 1499 1492 1492 1492 1492 1492 1496 1492 1490 1490 1490 1490 1491 1491 1492 1493 1495 1496 1498 1500 1502 1505 1507 1510 1513 1516 1518 1521 1523 1525 1527 1529 1530 1532 1533 1534 1536
1520 1518 1509 1496 1491 1492 1503 1499 1490 1489 1490 1490 1491 1492 1490 1488 1488 1488 1488 1488 1489 1490 1491 1493 1494 1496 1498 1500 1502 1505 1508 1511 1513 1516 1518 1520 1523 1525 1526 1528 1529 1531 1532 1534
1516 1516 1509 1491 1491 1494 1492 1488 1487 1487 1487 1487 1487 1487 1487 1486 1485 1485 1485 1486 1487 1488 1489 1491 1492 1494 1495 1497 1500 1503 1506 1508 1511 1513 1516 1518 1520 1522 1524 1525 1527 1528 1530 1531
1504 1501 1492 1489 1488 1487 1487 1486 1485 1484 1484 1485 1484 1484 1484 1484 1484 1484 1484 1484 1485 1486 1487 1488 1490 1491 1493 1495 1498 1501 1503 1506 1509 1511 1513 1515 1518 1519 1521 1523 1524 1526 1527 1528
1498 1492 1489 1487 1486 1485 1485 1484 1483 1482 1482 1482 1482 1482 1482 1482 1482 1482 1482 1483 1484 1484 1485 1486 1488 1490 1491 1494 1496 1498 1501 1503 1506 1508 1510 1512 1515 1517 1518 1520 1521 1523 1524 1526
1494 1490 1486 1484 1483 1483 1482 1481 1480 1479 1479 1479 1479 1479 1479 1479 1480 1481 1481 1481 1482 1483 1484 1485 1486 1488 1490 1491 1493 1495 1498 1500 1503 1505 1507 1509 1511 1514 1515 1517 1519 1520 1522 1523
1490 1486 1485 1482 1481 1481 1479 1477 1476 1476 1476 1476 1477 1477 1477 1477 1477 1478 1479 1480 1480 1481 1482 1483 1484 1486 1488 1489 1491 1493 1495 1497 1499 1502 1504 1506 1508 1510 1512 1514 1516 1518 1520 1521
1482 1481 1481 1479 1478 1477 1476 1474 1473 1473 1473 1473 1473 1474 1474 1474 1475 1476 1476 1477 1478 1479 1480 1481 1482 1484 1485 1487 1488 1490 1492 1494 1496 1498 1500 1502 1504 1506 1508 1511 1513 1515 1517 1518
1479 1478 1476 1474 1473 1472 1472 1471 1470 1469 1469 1469 1470 1470 1471 1471 1472 1473 1474 1475 1475 1476 1477 1478 1480 1481 1483 1484 1486 1487 1489 1491 1492 1494 1497 1499 1501 1503 1505 1506 1508 1510 1513 1515
1474 1474 1472 1470 1469 1468 1467 1466 1465 1465 1465 1466 1466 1467 1467 1468 1468 1469 1471 1472 1473 1474 1475 1476 1477 1478 1480 1482 1483 1484 1486 1487 1489 1491 1493 1495 1497 1499 1502 1503 1505 1507 1509 1511
1469 1468 1467 1466 1464 1463 1463 1462 1462 1461 1462 1462 1462 1463 1464 1465 1466 1466 1467 1468 1469 1470 1471 1472 1474 1475 1477 1478 1480 1481 1483 1484 1486 1488 1489 1492 1493 1496 1498 1499 1501 1503 1505 1507
1465 1463 1462 1461 1460 1459 1459 1459 1458 1458 1458 1459 1459 1460 1461 1461 1462 1463 1464 1465 1466 1467 1468 1469 1470 1472 1474 1475 1477 1478 1479 1481 1483 1484 1486 1488 1490 1492 1494 1496 1497 1499 1501 1503
1460 1459 1458 1457 1456 1455 1455 1455 1454 1454 1454 1455 1456 1456 1457 1458 1458 1459 1460 1461 1462 1463 1464 1466 1467 1469 1470 1472 1473 1475 1476 1477 1479 1481 1483 1485 1486 1488 1490 1492 1493 1495 1497 1499
1455 1454 1453 1452 1452 1451 1450 1450 1450 1450 1450 1451 1452 1452 1453 1454 1455 1456 1457 1458 1458 1459 1460 1462 1464 1465 1466 1468 1470 1471 1472 1474 1475 1477 1479 1481 1483 1484 1486 1487 1489 1491 1492 1494
1450 1449 1448 1448 1447 1447 1446 1446 1446 1446 1447 1447 1448 1448 1449 1450 1452 1453 1453 1454 1455 1456 1457 1458 1460 1461 1462 1464 1466 1467 1468 1470 1471 1473 1474 1476 1477 1479 1481 1483 1484 1486 1487 1489
1446 1445 1444 1444 1443 1443 1443 1443 1442 1442 1443 1443 1444 1445 1445 1446 1448 1449 1449 1450 1451 1453 1453 1454 1455 1457 1458 1460 1461 1463 1464 1466 1467 1468 1470 1471 1473 1474 1476 1477 1479 1481 1482 1484
1443 1442 1441 1441 1440 1439 1439 1439 1439 1439 1439 1439 1440 1441 1442 1442 1443 1444 1445 1446 1447 1448 1449 1450 1451 1452 1453 1455 1457 1458 1460 1461 1462 1464 1465 1466 1468 1469 1471 1472 1474 1475 1477 1478
1440 1439 1438 1438 1437 1436 1436 1436 1436 1436 1436 1436 1436 1437 1438 1438 1439 1439 1440 1442 1443 1444 1445 1446 1447 1448 1449 1450 1452 1453 1454 1456 1457 1459 1460 1462 1463 1465 1466 1467 1469 1470 1472 1473
1437 1436 1436 1435 1435 1434 1433 1433 1433 1433 1433 1433 1433 1434 1434 1434 1435 1436 1436 1437 1439 1440 1441 1441 1442 1443 1444 1445 1447 1448 1449 1451 1452 1454 1455 1457 1458 1460 1461 1462 1464 1465 1467 1469
1435 1434 1433 1432 1432 1431 1431 1430 1430 1430 1430 1430 1430 1431 1431 1431 1431 1431 1432 1433 1434 1435 1436 1437 1438 1439 1440 1440 1442 1443 1444 1446 1447 1449 1450 1451 1453 1455 1456 1458 1459 1461 1462 1464
1432 1432 1431 1430 1430 1429 1429 1428 1427 1427 1427 1427 1427 1428 1428 1428 1428 1428 1429 1429 1430 1431 1432 1433 1433 1434 1435 1436 1437 1438 1439 1441 1442 1444 1445 1447 1448 1450 1451 1453 1454 1456 1457 1459
1430 1429 1428 1428 1427 1427 1426 1426 1425 1425 1424 1424 1424 1425 1425 1425 1425 1425 1426 1426 1427 1428 1428 1429 1429 1430 1430 1431 1432 1434 1435 1436 1437 1439 1440 1442 1443 1445 1446 1448 1450 1452 1453 1455